Location: Navalespino
(40.5894°N, 4.2660°W)
Time: 16:18:06
(UTC+00:00)

CARTOSAT-1 - Pass Details

Date: 18 April 2024
Orbit: 606 x 609 km, 97.6° (Epoch: 24 May)

Event Time Altitude Azimuth Distance (km) Brightness Sun altitude
Exits shadow 20:40:09 14° 185° (S) 1,690 5.5 -18.1°
Maximum altitude 20:43:38 53° 260° (W) 751 4.2 -18.7°
Drops below altitude 10° 20:47:50 10° 338° (NNW) 1,972 7.0 -19.3°
Sets 20:50:04 0° 343° (NNW) 2,880 7.8 -19.7°
